Flag for U.S.A. Weather past 2 weeks in Olathe, Kansas, U.S.A.

30 °F

Light freezing rain. Low clouds.

Feels Like: 19 °F
Forecast: 28 / 31 °F
Wind: 14 mph from Northeast

Location: Johnson County Executive Airport

Current Time: Nov 27, 2015 at 3:56:03 PM

Latest Report: Nov 27, 2015 at 2:53 PM

Visibility: 8 mi

Pressure: 30.40 "Hg

Humidity: 96%

Dew point: 29 °F

Location of OlatheLocation

Historic Weather in Olathe — Graph


Olathe temperature yesterday

Maximum temperature yesterday: 63 °F (at 11:03 AM)
Minimum temperature yesterday: 34 °F (at 9:00 PM)
Average temperature yesterday: 49 °F

Past Weeks' High & Low Weather Summary

High66 °F (Nov 14, 1:53 PM)100% (Nov 17, 9:53 AM)30.43 "Hg (Nov 17, 9:53 AM)
Low25 °F (Nov 21, 9:53 PM)22% (Nov 12, 4:53 PM)29.34 "Hg (Nov 18, 4:53 AM)
Average47 °F65%30.04 "Hg
* Reported Nov 12 1:53 PM — Nov 27 1:53 PM, Olathe, Weather by CustomWeather, © 2015

Note: Actual official high and low records may vary slightly from our data, if they occured in-between our weather recording intervals... More about our weather records


Olathe weather history for previous 24 hours

Time TempWeatherWind HumidityBarometerVisibility
1:53 PM
Fri, Nov 27
30 °FIce fog.15 mph96%30.40 "Hg4 mi
12:53 PM30 °FIce fog.16 mph96%30.42 "Hg4 mi
11:53 AM31 °FLight freezing rain. Low clouds.15 mph92%30.42 "Hg9 mi
10:53 AM31 °FLight freezing rain. Ice fog.15 mph92%30.41 "Hg6 mi
9:53 AM31 °FLight freezing rain. Ice fog.13 mph92%30.43 "Hg4 mi
8:53 AM31 °FLight snow. Low clouds.13 mph92%30.40 "Hg10 mi
7:53 AM30 °FLight freezing rain. Low clouds.21 mph92%30.37 "Hg10 mi
7:00 AM31 °FLight freezing rain. Mostly cloudy.18 mph92%30.36 "Hg8 mi
6:53 AM31 °FLight freezing rain. Overcast.17 mph92%30.39 "Hg7 mi
5:53 AM31 °FLight freezing rain. Ice fog.10 mph96%30.38 "Hg3 mi
4:53 AM32 °FLight snow. Low clouds.17 mph92%30.34 "Hg7 mi
3:53 AM32 °FLow clouds.20 mph92%30.30 "Hg7 mi
2:53 AM32 °FLow clouds.18 mph96%30.31 "Hg7 mi
2:01 AM33 °FRain. Fog.18 mph92%30.28 "Hg6 mi
12:53 AM33 °FLight rain. Mostly cloudy.18 mph92%30.27 "Hg9 mi
11:53 PM
Thu, Nov 26
34 °FRain. Fog.17 mph92%30.25 "Hg5 mi
10:53 PM34 °FLight rain. Low clouds.17 mph92%30.22 "Hg9 mi
10:04 PM34 °FRain. Fog.15 mph97%30.22 "Hg4 mi
9:00 PM34 °FHeavy rain. Fog.20 mph92%30.20 "Hg2 mi
7:53 PM35 °FRain. Fog.13 mph96%30.22 "Hg3 mi
7:03 PM36 °FHeavy rain. Fog.16 mph97%30.18 "Hg2 mi
6:53 PM36 °FRain. Fog.15 mph97%30.17 "Hg3 mi
5:53 PM37 °FRain. Fog.15 mph96%30.16 "Hg4 mi
4:53 PM38 °FRain. Fog.13 mph93%30.16 "Hg5 mi
3:53 PM39 °FHeavy rain. Fog.12 mph96%30.12 "Hg2 mi
Weather by CustomWeather, © 2015

See weather overviewHow to use our weather pages